Location: 22
(39.7117°N, 89.5929°W)
Time: 18:55:05
(UTC-05:00)

Vanguard 3 - Pass Details

Date: 07 February 2023
Orbit: 508 x 3249 km, 33.4° (Epoch: 30 March)

Event Time Altitude Azimuth Distance (km) Brightness Sun altitude
Rises 18:48:37 0° 253° (WSW) 3,803 12.3 -16.5°
Reaches altitude 10° 18:50:49 10° 250° (WSW) 3,105 11.3 -16.9°
Maximum altitude 18:58:42 62° 171° (S) 1,910 8.9 -18.4°
Enters shadow 19:07:26 24° 102° (ESE) 3,840 10.0 -20.1°
Drops below altitude 10° 19:12:50 10° 97° (E) 5,347 - -21.1°
Sets 19:17:54 0° 94° (E) 6,703 - -22.1°
